Wind_Speed
12 12 14 16 17 18 21 25 28 31 32 32 33 32 30 30 31 31 34 36 36 38 40 41 41 41 41 41 40 39 39 39 39 38 39 39 39 38 38 38 39 36 33 31 29 27 25 24 23 24 24 22 21 22 24 25 26 26 25 25 25 24 23 23 20 18 18 18 17 17 17 17 15 15 14 13 14 13 11 11 11 11 12 12 12
16 16 17 17 16 15 15 18 22 25 27 28 29 30 31 32 33 34 35 36 38 41 42 42 43 43 43 43 42 42 41 40 40 40 40 40 40 40 40 41 41 39 37 34 31 29 27 26 25 25 27 27 26 23 23 25 28 28 29 29 29 27 26 26 24 22 21 20 20 20 20 20 19 18 17 17 17 16 14 13 14 14 14 14 14
21 21 22 22 20 18 16 16 18 20 23 23 23 24 26 28 31 33 36 38 41 43 43 43 44 44 45 46 45 44 42 40 40 40 40 40 40 41 41 42 43 42 40 37 33 31 29 27 26 26 28 30 30 28 25 25 28 30 31 31 32 32 30 28 28 26 23 22 22 23 22 22 22 21 21 20 19 18 16 15 15 15 16 17 16
25 25 26 27 26 24 22 19 18 18 20 21 22 23 24 26 29 31 35 40 44 45 44 43 44 46 46 47 47 46 44 42 41 40 40 40 41 41 42 43 44 44 43 39 35 33 30 28 27 28 29 29 31 32 30 27 28 31 34 35 35 35 34 32 31 29 27 25 25 25 25 24 25 24 23 22 20 19 19 17 16 16 16 17 18
28 28 29 30 31 30 29 27 23 21 20 21 25 27 29 31 34 36 39 42 43 45 45 45 46 47 48 48 48 47 46 45 44 43 42 42 42 41 42 43 44 45 44 41 38 35 33 30 28 28 29 29 30 33 35 32 29 30 35 37 38 38 37 36 34 33 32 29 26 26 27 27 27 26 25 24 22 21 20 19 18 17 16 17 17
27 27 28 30 32 33 33 32 31 28 25 25 27 30 32 33 36 39 42 43 42 42 44 46 48 49 49 50 51 50 49 48 47 46 45 45 45 43 43 44 44 44 44 42 40 38 37 34 30 28 29 30 30 32 36 37 34 32 34 37 39 40 41 40 38 36 35 32 29 28 28 28 29 29 27 25 24 22 21 20 18 16 16 17 18
26 25 26 27 29 32 34 34 34 33 31 31 31 32 32 32 32 35 38 41 42 42 42 43 46 49 50 51 52 52 51 51 50 50 49 48 47 46 45 45 45 44 43 42 40 39 39 37 34 31 30 31 31 31 34 38 39 37 36 37 39 42 43 43 42 40 38 35 33 31 30 29 30 30 29 27 25 23 22 20 18 17 17 19 19
28 26 26 26 26 28 31 33 34 35 34 34 35 35 34 33 32 31 33 35 38 41 41 41 43 46 49 51 52 52 52 52 52 51 51 50 49 48 47 46 46 46 44 42 40 39 39 39 38 35 34 33 33 32 33 36 41 42 41 39 40 41 43 45 45 43 41 38 36 34 33 32 31 31 31 29 26 24 23 23 21 20 20 21 21
30 29 29 28 28 28 29 30 32 33 34 35 36 37 37 36 35 34 34 33 34 36 39 41 42 43 45 49 51 53 53 52 52 51 51 50 50 50 50 50 49 48 47 45 43 42 41 40 40 39 38 36 35 35 35 36 39 43 45 44 42 41 43 45 47 47 44 42 39 37 36 35 33 33 33 31 27 26 26 26 24 23 22 22 22
33 33 32 31 31 31 31 31 31 32 33 34 35 36 37 37 37 38 38 37 36 36 37 39 40 41 42 44 46 49 51 52 51 51 51 51 51 52 54 54 53 52 51 50 48 47 46 44 42 40 39 38 37 37 38 39 40 42 46 48 46 44 43 44 46 48 47 45 43 40 39 38 36 35 35 33 30 29 28 27 27 26 25 25 25
33 35 36 35 34 34 34 34 34 34 33 34 34 34 35 36 37 37 38 39 40 39 39 39 39 41 42 43 43 44 47 49 51 51 51 51 52 54 54 55 55 54 54 53 52 51 51 50 47 44 41 40 40 40 40 40 42 43 45 48 50 48 46 45 46 47 48 48 46 44 42 40 38 37 37 35 34 32 31 30 30 29 29 28 27
29 34 36 38 38 37 37 37 37 37 37 37 36 36 36 36 36 36 37 38 39 40 41 42 41 41 42 43 44 44 45 46 48 50 50 50 51 53 54 55 56 56 56 56 55 54 54 54 53 51 47 44 42 42 42 41 41 43 44 46 50 52 50 49 48 48 49 49 49 48 45 43 41 40 39 38 37 36 35 34 32 32 32 31 31
24 28 32 36 38 39 40 40 40 41 40 40 40 40 39 39 38 37 37 37 38 39 40 41 43 44 44 44 45 46 46 46 47 48 50 51 51 53 54 56 57 58 58 58 57 56 56 56 57 55 53 51 48 45 44 44 43 43 44 45 48 51 52 53 52 51 51 50 50 50 48 46 45 43 41 41 41 40 39 36 35 35 36 35 34
20 22 26 30 34 36 39 40 42 43 43 43 43 43 42 41 41 41 40 39 40 40 39 40 41 43 45 46 46 47 47 47 47 48 50 51 52 54 55 57 58 59 59 59 58 58 58 59 60 59 58 56 54 50 49 48 47 47 46 47 48 49 51 53 54 55 55 54 53 51 49 49 49 46 45 45 44 44 42 40 38 39 39 39 37
18 19 21 24 27 30 34 37 39 42 43 45 46 46 45 44 43 43 43 43 42 41 41 41 41 42 43 45 47 47 47 48 49 49 50 51 53 54 55 56 57 57 57 56 55 55 55 55 56 57 59 60 59 57 55 53 53 52 51 50 50 52 53 54 55 56 58 58 56 53 50 51 52 49 48 49 48 47 46 44 42 43 44 43 41
16 17 19 21 23 25 28 31 35 38 41 44 46 47 47 47 46 46 46 45 45 44 44 43 43 44 44 45 46 46 46 47 48 49 50 51 52 54 55 55 56 56 56 56 55 55 54 54 52 52 53 55 58 60 61 60 59 59 57 56 55 56 57 57 57 58 60 61 60 57 54 52 53 52 52 52 51 50 51 50 47 47 47 46 43
16 16 17 19 20 23 25 27 30 33 37 40 43 45 47 47 47 48 49 48 48 47 47 47 47 47 47 47 48 49 48 48 49 49 50 50 52 54 55 56 57 57 57 57 57 58 57 55 53 51 50 49 49 53 58 63 65 65 65 63 61 60 60 60 60 62 64 64 64 63 60 56 54 54 54 55 55 54 55 54 51 50 49 48 46
16 17 17 18 19 21 22 24 27 30 33 37 39 42 44 45 45 47 49 50 49 49 49 50 49 49 50 50 51 52 52 52 52 53 53 53 54 55 56 57 58 59 59 58 59 59 58 56 53 52 51 49 46 45 47 53 58 60 61 60 59 60 60 60 61 63 66 67 67 66 65 62 58 56 56 57 57 57 58 56 55 54 53 51 48
16 17 18 19 20 21 21 23 24 26 29 33 36 38 40 41 42 43 45 47 48 47 48 48 49 48 49 51 53 54 56 56 56 57 57 57 58 58 59 60 60 60 60 60 60 60 59 58 56 54 53 51 49 46 45 46 49 51 53 54 57 58 56 55 57 59 61 64 66 66 67 66 62 60 59 57 58 60 60 58 59 59 57 54 51
18 18 19 20 21 22 23 24 24 25 26 28 31 34 36 37 38 39 40 42 42 42 41 43 44 44 45 47 50 53 56 58 60 60 61 62 62 63 64 64 64 64 63 63 63 62 61 60 58 57 55 53 51 49 48 48 50 51 52 55 57 55 50 49 51 52 54 58 61 64 65 66 66 64 62 60 59 60 62 61 61 62 61 58 55
19 19 19 20 21 23 24 25 26 26 27 27 28 30 33 35 35 35 35 35 35 34 34 36 38 39 40 43 46 49 52 56 60 62 64 65 66 67 68 69 69 68 68 67 66 66 65 63 61 59 57 55 53 52 51 51 52 53 55 56 56 52 47 46 46 46 49 54 58 62 64 65 66 67 67 64 61 61 64 64 63 63 63 63 61
18 18 18 19 20 22 24 25 26 27 27 27 26 27 30 33 34 33 32 31 31 31 31 33 35 37 39 41 43 46 48 52 55 58 61 64 66 68 70 72 72 73 73 73 72 70 68 67 65 63 61 58 56 55 54 53 54 56 57 57 55 52 48 47 47 46 49 52 56 63 66 66 67 67 68 67 64 63 66 67 66 66 65 64 64
16 16 17 18 19 21 23 25 26 26 26 26 25 24 25 29 31 32 32 31 31 31 32 33 35 38 39 40 42 44 47 49 51 53 55 58 61 64 67 70 71 73 76 77 76 75 73 71 70 67 65 63 61 59 57 56 56 57 58 57 56 54 52 51 51 51 51 53 56 61 65 66 68 68 69 69 67 64 65 67 69 70 67 65 66
15 15 16 16 18 20 23 25 25 26 25 25 24 23 21 22 26 29 30 31 32 32 32 33 36 37 38 39 40 41 44 47 49 51 53 55 57 59 61 63 66 69 72 75 76 77 77 76 75 73 71 69 66 64 62 60 60 59 59 58 57 56 56 56 55 54 54 54 55 59 62 62 65 68 69 69 67 64 63 65 70 73 71 68 68
15 16 16 16 17 19 21 23 24 24 24 23 22 21 20 19 21 24 27 30 31 31 32 33 35 35 35 36 36 35 37 41 45 47 49 51 54 55 56 56 59 62 66 69 71 73 75 75 76 76 76 74 72 70 68 66 64 63 62 61 59 59 59 60 59 58 57 55 54 56 59 58 60 63 66 67 68 67 65 65 69 73 74 73 72
17 18 18 18 18 19 20 21 22 22 22 21 20 20 19 18 19 22 25 27 29 30 31 32 32 32 33 33 33 33 35 36 39 42 44 46 48 49 50 51 52 55 60 64 66 68 70 71 72 74 75 76 76 75 74 72 70 68 67 65 64 63 62 62 61 61 60 58 55 54 54 53 55 58 61 65 68 69 68 68 68 71 75 76 76
18 19 19 19 19 20 20 21 21 21 20 20 19 19 19 19 20 23 25 26 28 29 29 29 30 31 32 32 32 34 36 36 36 37 40 43 44 44 45 47 48 50 52 55 58 61 63 66 68 69 71 73 75 76 77 77 76 75 73 71 69 68 66 65 63 62 61 61 60 58 55 53 54 56 58 61 65 65 67 69 70 70 73 76 78
18 19 19 20 20 19 20 20 20 20 20 19 18 18 19 20 22 24 26 28 28 28 28 28 29 31 31 31 32 35 37 37 36 35 35 39 41 41 42 44 45 46 47 48 50 52 55 59 62 64 67 70 72 74 76 78 78 78 78 76 74 73 71 68 66 64 63 62 62 61 60 58 58 58 59 61 63 63 64 67 71 72 73 75 78
18 19 19 20 20 20 19 19 19 19 19 18 17 18 19 21 23 25 27 29 29 29 28 27 29 31 31 31 33 36 38 38 37 34 32 34 38 40 40 41 42 42 43 44 45 47 49 52 55 58 61 64 67 70 72 75 77 78 78 78 77 76 74 73 71 67 64 63 64 63 62 62 60 59 60 62 63 64 64 65 69 71 72 75 79
18 18 19 20 20 20 20 19 18 18 18 17 16 16 17 20 23 26 28 29 30 30 29 28 29 31 31 30 31 35 38 37 34 31 30 30 33 36 37 37 38 40 41 42 43 45 46 47 50 52 54 57 61 64 67 70 73 76 77 78 78 78 76 75 75 71 66 64 64 64 64 64 62 60 60 62 62 63 64 65 66 68 71 74 77
18 18 19 19 20 21 21 20 19 18 18 18 17 15 14 16 20 24 27 29 29 30 29 29 29 30 31 29 28 29 31 31 29 28 28 28 28 32 35 36 36 37 39 41 43 44 44 45 46 48 50 52 55 58 61 64 67 70 74 76 77 78 78 77 76 74 70 65 64 64 65 65 64 61 60 61 60 59 61 62 62 64 67 69 72
18 18 19 19 20 21 21 21 21 20 19 18 18 17 15 13 14 18 21 25 27 28 29 29 28 28 28 28 27 26 25 26 27 27 26 27 26 27 31 34 36 36 37 40 43 45 45 45 46 47 48 50 51 54 56 59 62 65 68 72 74 76 77 77 76 76 72 66 63 63 64 65 64 62 61 60 58 57 58 59 58 59 62 65 68
18 18 19 19 20 21 22 22 22 22 21 20 19 19 18 16 15 14 15 18 21 25 27 28 28 27 25 24 25 25 23 24 26 27 26 25 26 26 28 31 34 35 37 40 42 43 43 45 47 48 49 49 50 52 54 56 59 60 63 66 70 73 74 74 75 76 74 69 63 63 64 64 62 62 61 60 58 56 57 57 57 57 60 63 66
19 19 19 20 20 20 21 22 23 23 23 23 22 21 20 20 19 18 16 16 16 18 20 23 25 25 24 23 23 24 24 24 25 25 24 24 24 26 28 29 30 31 34 37 39 40 41 42 43 45 47 47 49 50 52 54 56 57 59 60 62 65 69 70 71 73 74 69 64 63 63 62 61 62 62 61 59 57 57 57 57 57 58 61 63
20 20 20 20 20 20 21 22 23 23 24 24 24 24 23 22 22 22 21 20 19 17 17 19 21 22 22 22 23 24 25 25 25 24 24 25 26 26 26 27 27 29 31 33 34 36 38 40 41 41 42 44 46 48 51 52 52 53 56 57 57 58 61 63 65 69 71 69 64 62 61 62 62 63 63 61 59 57 57 58 58 57 58 59 59
21 21 21 21 21 21 21 22 22 23 24 25 25 25 25 25 24 23 23 23 23 22 20 19 20 20 21 22 24 25 26 27 27 25 24 27 30 30 28 24 23 24 25 26 27 29 31 35 38 40 41 42 42 44 47 50 50 50 51 54 54 54 54 55 58 62 66 66 63 61 61 63 63 61 58 59 59 58 57 58 58 56 54 54 54
21 22 22 22 21 22 22 22 22 23 24 25 25 26 26 26 26 25 25 23 23 23 23 22 21 20 20 21 23 24 25 27 28 27 26 27 30 32 30 26 22 20 19 19 21 24 27 29 32 34 36 38 39 40 41 44 46 47 47 50 52 51 50 51 53 56 60 63 62 60 61 62 61 58 55 55 55 54 53 55 58 58 54 53 54
21 22 22 22 22 22 22 22 22 23 23 24 25 25 26 26 26 26 26 25 24 23 24 24 24 22 21 21 22 23 25 25 24 24 25 25 26 29 31 30 26 22 21 21 21 23 25 27 28 29 31 32 34 36 38 40 43 43 43 45 48 47 46 48 49 51 54 58 59 58 58 59 60 58 55 51 48 48 47 48 50 52 53 54 56
21 22 22 22 22 22 22 22 22 22 23 23 24 24 25 26 26 27 27 27 26 25 25 25 25 25 24 23 22 22 24 24 24 24 25 26 26 27 28 30 28 25 22 21 22 23 25 27 28 29 29 29 30 31 33 35 37 39 40 43 46 46 45 47 49 50 52 55 57 56 57 57 59 58 55 49 46 44 41 39 38 40 44 48 51
21 22 21 21 21 21 22 22 23 23 23 23 24 24 25 25 25 26 27 27 28 28 27 27 26 26 26 26 25 24 24 25 25 25 26 27 27 27 27 27 27 27 26 24 23 23 24 27 29 31 31 30 29 29 29 30 30 32 35 40 45 46 45 45 44 45 48 51 54 55 56 57 58 58 54 50 46 43 40 37 36 35 37 40 42
21 22 21 21 21 21 21 22 23 23 24 24 24 24 25 25 26 26 26 26 27 27 28 28 28 27 27 27 27 27 27 27 26 25 25 25 25 26 27 27 27 27 27 27 27 26 23 22 25 28 31 32 30 29 28 28 29 31 33 37 41 43 43 41 38 37 41 48 51 53 54 55 55 54 51 48 46 44 42 40 39 38 36 36 36
20 20 21 21 21 21 21 21 22 23 23 24 25 25 25 25 25 26 26 26 26 26 27 27 27 27 27 28 27 27 28 29 28 27 25 24 23 23 23 24 26 27 26 26 27 26 24 24 25 25 26 27 29 30 30 30 31 32 34 36 38 37 36 34 33 32 36 41 44 46 48 47 45 44 44 44 43 42 41 40 39 36 34 33 34
18 18 19 20 20 21 21 21 21 22 22 23 24 25 25 25 25 26 26 26 26 26 26 26 26 26 26 27 27 27 27 28 28 27 26 24 22 21 20 21 22 24 25 26 26 26 26 27 28 29 28 26 22 23 27 32 35 36 35 35 34 32 28 27 27 27 28 31 34 35 36 35 33 32 35 38 40 40 39 38 37 35 34 34 34
16 17 18 19 20 21 21 21 21 22 22 23 23 24 25 25 26 26 26 26 26 26 26 26 25 25 25 25 25 26 26 27 27 26 26 25 23 21 20 18 19 20 21 22 23 24 25 26 28 29 30 29 26 19 14 13 18 25 28 27 25 22 20 19 21 21 23 26 30 31 30 28 27 26 28 32 35 35 32 31 32 34 36 37 35
16 17 18 20 21 22 22 23 23 23 23 22 23 23 24 25 25 26 26 26 26 26 27 27 26 25 25 25 25 25 25 25 26 26 26 25 23 22 21 19 18 18 19 19 19 20 21 22 24 26 27 26 25 24 22 17 10 2 11 16 18 17 17 17 18 19 19 22 26 29 28 25 22 22 24 28 32 31 30 33 35 35 36 36 34
17 18 19 20 21 22 23 24 24 24 24 24 24 24 24 24 25 26 26 27 27 27 27 27 27 26 26 25 24 24 24 24 24 24 25 24 23 23 22 21 19 19 19 18 18 18 19 19 20 21 22 22 22 21 21 20 17 12 4 3 9 13 14 15 18 19 20 20 21 22 23 22 20 22 25 29 31 30 31 34 35 34 33 32 30
19 20 21 21 22 22 23 24 25 25 26 26 26 26 25 25 25 25 26 26 27 28 28 28 28 28 27 26 25 24 24 24 23 22 22 23 23 23 22 22 21 20 19 18 18 18 17 18 18 18 18 19 19 19 19 19 18 16 14 11 7 4 1 4 11 16 17 16 17 20 23 24 26 27 26 26 28 30 30 30 31 32 32 31 32
22 23 24 24 24 24 24 24 25 25 26 27 27 27 27 27 26 26 26 26 26 27 28 28 29 28 28 28 27 25 25 24 23 23 22 21 21 21 20 20 20 20 19 18 17 17 16 16 15 15 15 16 16 16 16 17 17 16 16 15 14 12 11 8 5 2 4 4 6 13 19 24 27 27 23 21 25 29 30 28 29 31 31 31 32
24 25 25 25 25 26 26 25 25 26 26 27 27 28 28 28 28 28 27 27 26 27 27 28 29 29 29 28 28 27 26 25 24 23 22 21 20 19 18 17 17 18 17 16 15 15 14 13 13 12 13 13 14 13 13 14 14 15 15 15 15 14 14 13 13 10 8 8 7 8 13 17 19 19 16 14 17 20 20 19 20 22 23 25 26
27 27 27 27 28 28 28 27 27 27 27 27 28 28 29 29 29 29 29 29 29 28 28 28 28 29 29 29 29 28 27 26 25 24 23 22 21 20 18 17 16 16 15 14 13 13 12 12 11 11 11 12 13 13 13 12 12 12 12 11 11 11 11 12 12 12 12 12 12 12 12 13 13 14 15 15 16 17 18 18 19 20 21 23 24
29 29 30 30 31 31 31 31 31 30 29 29 29 29 29 30 30 30 30 31 31 30 30 29 28 28 29 29 29 29 29 27 26 25 24 23 22 21 20 18 17 17 16 15 14 14 13 13 12 11 10 9 10 11 12 11 10 10 10 10 9 9 8 8 8 8 9 9 10 10 11 11 12 12 13 14 15 16 16 17 18 19 20 20 21
Wind_Direction
250 254 256 258 262 262 254 249 247 247 249 249 246 244 244 240 235 233 235 237 237 232 228 228 229 229 230 231 232 233 234 233 235 239 240 241 241 240 240 243 246 248 248 248 248 250 253 256 260 264 267 267 262 257 254 254 256 257 257 253 249 245 240 238 228 214 219 228 229 234 241 243 245 247 247 247 248 250 254 262 272 280 287 289 288
240 244 249 253 257 259 256 248 243 242 244 246 245 243 241 238 236 235 235 238 240 237 232 230 231 231 231 232 233 233 234 234 235 238 241 242 243 243 242 242 245 247 247 246 245 245 245 248 253 258 262 264 263 260 257 257 257 258 261 261 257 252 247 245 240 226 219 226 233 236 240 245 248 249 248 247 247 249 253 257 264 274 282 284 283
237 238 242 247 250 252 251 245 239 235 236 238 237 235 236 236 236 237 238 240 242 240 236 234 233 233 232 232 232 232 233 234 234 236 240 243 244 244 244 244 245 247 248 247 245 244 244 243 245 251 257 260 261 260 258 258 259 258 260 263 263 260 255 250 246 239 229 225 232 238 240 243 248 249 249 247 247 250 253 256 262 271 278 279 279
236 236 238 240 242 245 245 242 238 233 231 233 234 233 232 234 236 238 240 242 242 239 237 237 237 236 235 234 233 233 233 234 235 237 239 241 243 245 246 245 245 246 247 247 245 244 244 243 242 245 250 254 256 257 256 257 261 261 259 259 261 264 262 257 251 247 242 233 231 235 239 242 244 246 248 247 247 249 251 253 259 268 275 278 279
238 238 238 238 239 240 240 240 239 237 234 236 240 241 239 238 239 240 242 244 243 239 238 239 240 239 239 238 236 235 234 234 236 238 239 241 243 245 246 247 247 246 247 247 245 244 243 243 243 244 246 249 252 254 255 255 258 263 261 258 258 260 262 260 255 251 249 243 237 235 236 239 242 243 244 246 245 245 247 250 256 264 273 278 278
242 241 241 241 241 240 239 239 239 238 237 240 244 246 246 245 245 245 247 249 248 245 243 242 241 241 241 241 240 238 237 235 236 237 239 241 242 244 246 247 247 247 246 246 246 245 244 243 241 242 245 248 250 251 253 253 255 260 263 261 258 258 259 258 256 253 251 249 245 241 237 236 238 239 240 242 243 243 244 247 252 261 272 275 272
245 243 243 243 243 243 242 242 242 242 240 241 244 247 249 250 251 251 252 253 254 253 252 248 244 242 242 242 242 241 240 239 238 239 240 241 242 243 244 246 247 246 246 245 245 246 247 246 242 241 243 247 250 252 252 252 251 254 260 263 261 260 259 259 257 255 253 250 249 247 243 238 236 237 238 238 239 241 243 246 252 261 266 266 265
248 246 245 244 243 244 245 246 247 248 247 246 247 249 251 253 254 255 256 256 256 256 256 253 249 245 243 243 243 243 243 242 241 241 242 244 245 244 244 244 246 246 245 244 244 245 247 248 247 245 244 246 250 252 252 252 250 249 252 258 262 262 262 261 259 257 254 251 249 248 247 243 237 236 236 237 238 240 244 246 250 255 258 259 262
252 250 248 246 245 245 245 246 248 250 252 252 252 253 255 256 257 258 259 260 260 259 258 256 254 250 248 246 245 245 245 245 244 244 245 246 248 249 247 246 246 246 246 245 244 245 247 250 251 250 250 251 251 251 251 252 252 249 247 250 256 261 263 262 260 257 255 252 249 247 246 245 242 239 238 238 238 240 243 244 245 250 254 255 256
258 256 253 250 248 246 246 246 246 247 250 251 252 254 256 258 258 259 260 261 262 263 262 260 258 255 253 251 250 249 248 248 247 246 246 247 248 249 249 248 247 248 248 247 247 247 249 251 252 253 254 254 253 252 251 253 254 251 247 246 250 256 261 262 261 258 257 254 250 247 246 244 243 243 242 239 237 239 241 241 243 248 251 252 254
257 258 257 255 252 249 248 248 247 247 247 248 249 251 253 255 257 258 259 259 260 261 262 262 260 258 256 255 254 252 251 250 248 247 247 247 248 248 249 249 249 249 249 250 250 250 251 252 253 254 254 254 254 253 253 254 255 252 248 246 247 250 255 259 261 261 261 258 254 250 246 244 243 244 244 241 237 238 241 241 243 245 248 251 252
255 255 255 255 254 251 250 250 250 250 250 249 248 248 249 250 252 254 255 256 258 259 259 259 259 259 258 256 255 255 253 251 250 249 249 249 248 249 249 249 249 250 252 253 253 253 253 253 253 252 252 252 253 252 252 253 253 253 252 249 247 248 250 254 258 260 260 261 259 254 248 245 243 242 244 242 238 238 240 240 242 244 247 249 250
259 256 255 254 253 251 250 250 250 251 252 252 251 250 249 249 250 251 251 253 255 256 257 258 258 258 258 257 256 256 255 253 251 250 249 250 250 249 249 250 250 252 253 253 254 254 255 255 254 253 251 251 250 249 249 250 251 251 254 254 251 249 249 250 253 256 258 259 260 256 251 247 245 242 243 243 239 237 239 240 241 244 246 248 249
269 265 261 257 254 252 250 249 249 250 252 254 254 254 253 252 251 251 251 252 253 255 256 257 258 259 259 259 258 257 256 255 254 253 252 252 252 253 252 252 253 254 254 255 256 256 257 257 257 255 254 251 249 247 247 249 250 250 251 254 255 254 252 251 251 253 255 258 259 258 254 250 248 243 242 243 240 238 239 240 241 244 246 248 249
283 276 270 265 261 257 254 252 250 249 250 251 253 255 256 255 255 255 254 254 254 255 256 257 258 259 260 260 260 260 258 258 257 257 257 256 257 257 256 256 256 257 258 259 259 259 260 261 260 259 256 253 250 247 246 248 250 251 251 252 254 256 255 255 254 254 254 256 258 259 257 254 251 246 242 243 241 238 239 240 240 242 246 247 248
304 293 285 278 271 266 261 258 256 254 252 251 252 253 255 256 256 256 257 257 257 257 257 257 258 258 259 260 261 261 260 259 259 259 259 259 259 259 259 259 259 260 261 262 262 262 263 264 263 262 259 256 252 249 248 248 249 250 252 254 256 257 257 257 256 255 254 254 255 257 258 256 255 251 245 242 242 240 239 240 240 241 244 247 247
324 314 304 294 286 278 272 266 262 259 257 255 254 253 254 255 255 256 257 258 258 259 259 259 259 259 260 261 262 262 261 261 260 260 259 259 259 260 261 261 262 262 262 262 263 263 264 265 264 263 262 260 257 254 251 250 251 252 254 257 260 261 260 259 258 255 252 252 252 254 255 255 256 255 249 244 243 242 241 240 240 241 243 245 246
328 323 316 308 300 292 284 277 270 265 261 259 258 256 256 256 256 256 256 257 258 259 259 260 260 260 261 261 262 262 262 261 261 261 260 260 260 260 260 261 261 262 262 263 263 264 265 266 265 263 262 263 262 259 255 253 252 253 255 259 261 263 263 262 260 255 250 248 249 251 252 251 252 255 253 247 244 244 244 242 241 243 244 244 245
319 315 312 309 305 300 294 288 281 275 268 264 261 259 258 258 258 257 257 258 259 260 260 261 261 262 262 262 262 262 262 262 262 262 262 261 261 261 260 260 260 261 261 262 263 264 264 265 265 263 263 263 262 261 258 255 254 254 256 259 261 263 265 265 261 256 251 248 247 247 249 249 249 252 254 252 246 245 245 243 242 244 246 245 245
310 307 304 303 301 300 297 293 289 284 278 272 266 262 259 258 257 257 258 258 260 261 261 262 263 263 264 264 263 263 264 263 262 262 262 262 261 261 261 260 260 260 260 260 261 262 262 263 263 263 263 262 261 260 258 257 256 256 257 259 261 264 267 267 263 258 254 251 249 247 247 248 248 249 251 251 247 243 243 245 244 244 246 247 247
306 302 299 299 300 300 298 295 292 288 285 280 274 268 262 258 256 255 256 258 259 261 262 263 264 264 264 265 265 266 266 265 264 263 263 262 262 261 261 260 260 260 260 259 259 259 259 260 261 261 261 261 260 258 257 255 255 255 256 258 260 263 264 263 262 259 255 253 251 249 247 246 247 247 247 248 246 242 241 244 246 245 246 247 249
307 303 301 302 304 305 303 301 298 294 289 286 282 275 266 260 256 254 254 255 257 259 261 263 265 265 266 268 270 271 271 270 269 267 265 264 263 262 261 260 260 260 260 259 258 258 258 258 258 258 259 259 258 257 255 254 254 254 255 257 258 258 258 257 258 257 256 256 254 250 248 246 246 246 246 245 245 242 240 242 245 247 248 248 250
313 311 309 310 313 314 312 310 307 303 297 292 289 284 274 263 256 253 252 252 254 257 261 264 266 269 271 273 276 277 277 276 274 272 269 266 264 262 261 260 259 259 259 258 258 257 257 257 257 256 256 256 256 255 254 253 253 253 254 254 254 254 253 254 255 254 255 259 257 251 247 246 245 245 245 244 245 244 242 240 243 247 250 250 251
322 320 318 319 321 322 320 318 315 312 306 299 295 293 285 270 257 252 251 251 253 257 262 266 269 272 276 279 281 282 281 280 278 276 272 268 265 262 260 259 258 258 258 257 257 257 256 256 256 256 255 255 254 254 253 252 251 251 252 252 252 252 251 251 253 253 254 258 257 251 247 246 245 244 244 244 245 247 246 243 243 246 250 252 252
333 331 330 329 329 328 327 325 321 318 312 304 297 294 290 277 260 252 250 250 253 258 263 269 272 275 279 283 286 287 287 285 282 279 275 270 266 263 261 259 257 257 257 256 257 256 255 254 254 254 254 254 253 253 252 251 251 250 251 251 251 251 250 250 250 252 253 255 255 251 248 248 247 246 246 246 246 247 248 247 245 245 248 251 253
341 340 340 338 336 336 335 333 329 324 316 307 297 291 285 275 261 253 251 252 256 263 269 272 274 278 284 288 290 293 293 291 287 283 278 273 268 265 262 258 256 255 256 256 256 256 255 254 253 253 252 252 252 252 252 251 251 250 250 250 250 251 251 250 250 251 251 252 253 252 251 250 249 249 248 247 247 248 249 249 248 246 246 249 252
344 344 343 342 340 339 338 338 337 332 321 309 298 288 280 271 262 255 254 258 264 271 276 276 277 281 287 291 295 299 300 297 293 287 280 275 270 265 261 259 257 257 257 257 257 257 256 255 254 253 252 251 251 250 250 250 250 249 248 248 249 250 251 251 251 251 250 250 250 252 253 252 250 249 247 246 248 249 248 247 248 247 247 248 251
345 344 344 344 343 341 339 339 341 338 328 315 302 291 280 272 266 262 263 266 271 277 280 280 279 284 290 294 300 304 305 303 301 295 283 275 270 266 261 259 259 260 260 261 261 261 260 258 257 255 254 253 251 250 249 249 249 248 248 247 247 248 249 251 251 250 249 248 248 250 252 252 251 250 248 248 249 250 249 247 247 248 248 248 249
344 344 344 344 344 344 342 340 342 343 337 325 310 298 287 279 273 270 271 274 277 281 285 285 284 288 293 299 306 310 310 309 308 304 292 278 270 267 264 262 261 261 261 262 263 262 262 261 260 259 257 256 254 252 251 250 249 249 248 247 246 246 246 248 250 250 249 248 247 248 250 252 253 253 251 251 252 252 251 250 250 249 247 247 247
342 344 345 344 343 345 345 344 343 343 343 337 323 308 295 287 280 276 276 279 282 286 288 288 289 293 298 305 314 318 318 317 315 310 301 287 273 267 265 263 262 262 262 262 262 261 261 261 262 261 260 258 256 255 253 252 251 250 249 248 247 246 245 245 247 249 249 248 248 248 249 252 254 254 253 253 255 254 253 254 253 250 247 246 246
338 342 344 344 344 345 346 347 346 344 343 342 336 325 309 295 288 284 281 280 281 284 286 288 291 296 301 308 320 326 324 324 323 315 306 298 284 270 263 261 260 261 261 262 261 260 260 261 261 262 262 261 259 257 256 254 253 252 251 250 249 247 245 244 244 246 247 247 247 248 248 250 253 254 254 255 256 254 253 254 254 250 246 246 246
334 338 341 342 343 345 345 346 347 347 345 342 340 336 328 314 300 292 288 285 282 281 282 284 287 293 299 309 322 329 327 326 327 324 314 306 296 282 268 261 259 259 259 260 261 262 263 265 265 266 266 265 264 262 259 257 255 254 253 252 251 250 248 245 243 244 246 246 246 246 248 250 251 252 254 256 254 252 252 253 251 247 244 244 246
329 333 336 338 340 343 343 344 345 347 347 346 344 341 338 333 322 309 299 294 288 283 282 282 283 288 296 307 320 330 331 328 327 329 325 317 306 293 278 268 263 262 261 262 265 267 269 270 270 270 271 270 270 268 265 262 258 255 254 253 252 251 250 247 244 244 245 245 244 244 246 248 249 251 254 254 251 250 250 248 245 242 241 242 245
324 327 329 332 335 338 339 341 343 345 346 347 347 345 344 342 338 330 321 310 297 285 280 281 283 287 294 304 315 325 330 329 326 325 326 324 316 303 289 278 272 270 269 269 269 270 272 272 271 272 273 273 273 272 271 268 263 258 255 254 253 252 251 249 246 243 243 243 243 243 244 246 248 250 251 250 246 246 247 245 241 239 239 241 244
320 323 324 326 330 333 335 337 339 342 343 344 345 346 347 346 344 342 337 331 322 307 291 284 284 287 290 299 310 319 324 327 324 319 319 324 325 318 305 292 282 275 272 272 272 272 272 272 271 271 273 274 273 273 273 272 269 263 257 254 254 254 252 250 248 244 242 241 241 242 244 245 245 246 249 250 247 244 244 244 243 241 239 239 242
318 319 320 322 325 329 331 333 335 338 340 341 342 344 345 346 346 345 344 342 339 333 321 307 298 295 294 299 307 312 316 321 324 323 326 334 338 334 325 315 299 283 276 277 279 280 280 279 278 277 276 275 273 272 271 272 271 268 260 255 254 255 253 251 249 246 242 239 239 241 243 245 245 245 247 249 249 248 247 245 245 245 244 242 242
317 317 318 319 321 325 328 330 332 334 336 337 339 341 342 343 344 345 344 343 342 341 337 330 319 307 299 298 300 302 306 315 324 327 329 338 346 347 343 337 321 298 285 285 289 291 293 295 294 290 285 281 276 272 270 269 269 268 262 255 253 254 252 249 249 247 242 238 237 239 242 244 246 247 247 247 250 253 254 250 247 246 246 245 244
317 317 317 318 319 321 324 326 329 331 332 333 335 337 338 339 341 342 343 343 343 342 341 340 335 326 316 308 303 301 303 309 317 320 321 328 341 351 354 351 341 321 304 298 298 300 303 304 303 300 295 289 282 275 270 268 266 264 259 253 251 251 249 245 245 245 241 236 236 239 242 245 247 248 248 249 252 256 260 259 254 249 248 248 248
318 318 318 318 319 320 321 323 325 327 328 330 331 332 334 336 337 338 339 340 342 343 342 341 341 339 335 330 323 315 310 308 310 315 321 327 336 344 351 355 355 348 334 319 308 304 302 301 301 299 296 294 290 283 276 270 266 261 254 250 249 249 245 240 237 237 235 232 233 237 241 243 245 247 249 252 254 255 259 265 265 258 254 252 252
319 318 319 320 320 321 321 322 323 324 325 327 328 329 331 333 334 336 337 338 340 341 341 341 341 341 340 341 339 335 330 325 322 321 324 328 332 337 342 347 352 356 357 352 342 328 313 303 296 291 287 286 287 285 280 273 266 259 253 251 251 251 248 242 238 237 233 230 231 235 238 241 244 245 246 249 252 252 254 262 267 264 257 254 253
318 318 319 321 322 323 323 324 324 325 325 325 325 326 329 330 331 333 335 336 338 338 338 339 339 339 339 340 342 343 343 341 337 331 326 325 329 333 336 338 341 346 350 352 352 350 341 327 312 298 286 279 275 276 276 272 265 260 257 255 255 255 251 246 244 240 234 231 233 236 237 239 242 245 246 249 253 255 256 260 265 265 259 254 251
320 321 324 326 326 326 326 326 326 327 327 326 325 325 326 327 328 330 332 333 335 336 336 336 336 336 337 337 338 340 342 343 343 340 333 328 327 330 331 332 333 335 338 341 345 349 350 348 343 333 316 296 279 270 267 266 263 261 259 257 255 253 249 244 243 241 238 236 238 239 239 240 242 245 249 252 254 257 260 263 265 261 251 245 247
328 329 331 331 330 329 329 328 328 328 328 327 326 326 325 326 326 327 329 330 331 332 333 334 333 333 333 334 335 336 337 339 341 343 341 336 331 328 328 328 329 332 334 336 338 341 343 343 344 348 349 340 316 284 266 262 261 261 257 251 247 243 238 236 241 247 250 251 250 249 249 249 248 249 254 258 260 263 266 267 266 261 252 247 251
336 338 338 337 335 334 332 331 330 330 329 328 328 327 327 326 326 326 327 327 328 328 329 330 331 332 332 331 331 332 333 334 337 340 343 342 339 333 329 327 326 328 333 336 337 338 339 339 338 341 348 354 354 344 320 288 266 254 247 242 240 238 234 233 238 246 252 255 255 256 258 259 260 263 264 261 259 260 257 247 242 247 250 249 250
341 342 342 342 340 338 336 335 333 332 330 329 329 329 329 328 328 327 326 325 326 326 326 327 328 329 330 330 329 329 329 331 333 335 337 340 343 342 340 336 329 324 325 331 336 338 340 340 339 337 337 342 349 355 360 6 10 267 221 218 216 216 216 218 227 237 245 248 252 258 263 264 265 267 258 241 233 234 236 233 233 238 242 242 242
340 340 339 339 339 338 337 336 335 334 333 331 329 329 329 329 329 328 327 326 325 325 325 325 325 325 326 328 328 327 326 327 329 330 332 335 338 341 343 345 342 336 331 328 330 335 340 341 340 337 334 333 336 341 346 353 3 13 21 189 194 194 190 184 189 200 206 208 214 228 239 241 241 243 242 236 232 232 236 239 241 241 239 236 235
334 334 333 333 334 334 335 335 334 333 333 332 331 330 329 328 328 328 328 327 327 326 324 324 324 323 323 324 325 325 325 324 324 326 328 330 333 336 339 343 345 346 345 343 340 338 340 340 338 335 333 330 329 331 334 337 342 348 351 351 347 334 297 167 170 180 187 186 186 196 209 217 220 220 222 230 237 240 238 236 235 235 233 232 232
324 325 325 326 326 327 329 330 331 331 331 331 331 331 330 329 328 327 326 326 327 326 325 324 323 322 321 321 321 322 322 323 322 322 323 324 327 330 334 337 339 342 347 352 350 346 344 345 344 340 336 332 329 327 326 327 328 330 331 333 336 336 331 327 320 245 218 223 206 200 207 216 220 218 216 222 232 236 235 232 231 233 235 236 238
315 316 317 318 319 319 320 322 324 326 327 328 328 329 329 328 327 327 326 326 325 325 324 323 322 321 320 319 318 318 318 319 320 320 319 319 318 320 323 326 329 333 338 343 346 344 345 351 358 357 350 344 340 336 331 325 322 321 320 319 321 322 320 319 321 319 311 303 285 245 227 225 226 228 234 244 246 244 245 245 245 247 250 252 252
310 311 312 313 314 315 315 315 316 317 319 321 323 324 324 325 325 325 325 325 325 325 324 323 321 320 318 317 316 315 315 315 315 316 316 315 313 313 313 312 314 316 319 322 327 331 335 341 352 0 2 358 354 351 348 342 333 325 322 319 317 315 311 306 305 302 297 294 289 279 270 264 259 258 264 271 271 270 272 273 273 272 272 270 269
306 307 308 309 310 311 311 310 310 311 312 314 316 317 318 319 320 321 322 323 323 323 323 322 321 319 317 315 314 313 312 312 311 311 312 312 311 310 308 306 305 305 305 306 308 312 315 318 323 329 337 345 352 354 353 351 347 341 336 334 335 336 332 323 315 309 302 296 292 289 286 284 282 279 278 277 276 276 275 275 276 277 276 275 275
Height
3110 3111 3112 3113 3114 3114 3114 3114 3116 3118 3121 3123 3124 3127 3129 3130 3132 3134 3136 3137 3139 3140 3140 3142 3143 3144 3146 3147 3148 3150 3151 3153 3154 3155 3157 3158 3160 3161 3163 3163 3164 3166 3167 3167 3168 3168 3170 3171 3172 3173 3173 3174 3175 3176 3177 3178 3179 3179 3180 3180 3181 3181 3181 3180 3181 3182 3181 3181 3182 3182 3182 3182 3182 3182 3182 3182 3182 3182 3182 3182 3182 3182 3181 3180 3180
3108 3109 3110 3111 3112 3112 3112 3112 3113 3115 3117 3119 3121 3123 3125 3127 3129 3130 3132 3134 3136 3136 3137 3138 3140 3141 3142 3143 3144 3145 3147 3148 3150 3151 3152 3154 3156 3157 3159 3160 3161 3162 3163 3163 3164 3164 3165 3167 3169 3170 3170 3171 3171 3172 3174 3175 3176 3176 3177 3178 3179 3179 3179 3179 3179 3180 3180 3180 3180 3180 3180 3180 3180 3180 3180 3179 3179 3179 3180 3180 3179 3179 3179 3179 3178
3105 3106 3107 3109 3109 3110 3110 3110 3111 3113 3115 3117 3118 3120 3121 3124 3125 3127 3129 3131 3131 3132 3133 3134 3136 3137 3138 3139 3140 3141 3143 3144 3146 3147 3148 3151 3152 3154 3155 3156 3157 3158 3159 3160 3161 3161 3162 3163 3165 3166 3166 3167 3168 3168 3169 3171 3172 3173 3174 3175 3176 3177 3177 3177 3176 3177 3178 3178 3177 3177 3178 3178 3178 3179 3178 3177 3177 3177 3177 3177 3177 3177 3177 3176 3176
3102 3104 3105 3106 3107 3107 3108 3108 3109 3111 3112 3114 3115 3116 3118 3120 3121 3123 3125 3126 3126 3128 3129 3130 3132 3133 3134 3135 3136 3137 3138 3140 3141 3143 3144 3146 3147 3149 3150 3151 3153 3154 3155 3156 3157 3157 3158 3159 3160 3161 3161 3162 3164 3164 3165 3166 3168 3170 3171 3172 3172 3173 3174 3174 3174 3174 3174 3175 3175 3175 3175 3175 3176 3176 3176 3176 3175 3175 3175 3175 3174 3174 3174 3174 3174
3099 3100 3102 3102 3103 3104 3105 3106 3107 3108 3109 3110 3111 3113 3115 3116 3117 3119 3120 3120 3121 3122 3124 3125 3127 3128 3129 3131 3132 3133 3134 3135 3136 3137 3139 3141 3143 3144 3146 3147 3148 3149 3150 3152 3152 3153 3154 3155 3156 3157 3157 3158 3160 3161 3161 3162 3163 3165 3167 3169 3170 3170 3170 3171 3171 3171 3171 3171 3172 3172 3171 3172 3173 3174 3174 3174 3174 3173 3172 3172 3172 3172 3172 3172 3172
3096 3097 3098 3099 3100 3100 3101 3102 3103 3104 3106 3107 3108 3109 3111 3112 3114 3115 3115 3116 3116 3118 3119 3120 3121 3123 3125 3126 3127 3128 3129 3129 3130 3132 3134 3136 3137 3139 3141 3142 3144 3145 3146 3147 3148 3149 3149 3151 3152 3152 3153 3154 3156 3157 3158 3158 3159 3161 3163 3165 3166 3167 3167 3167 3167 3167 3167 3168 3169 3168 3168 3168 3169 3170 3171 3171 3171 3170 3170 3169 3169 3169 3170 3170 3169
3093 3094 3095 3095 3096 3097 3097 3098 3099 3100 3102 3103 3104 3105 3106 3108 3109 3110 3111 3111 3112 3113 3114 3116 3117 3118 3120 3121 3122 3124 3125 3125 3125 3126 3128 3130 3132 3134 3136 3137 3139 3140 3142 3143 3144 3144 3145 3146 3147 3148 3149 3150 3152 3153 3154 3155 3155 3156 3158 3160 3161 3162 3162 3163 3163 3163 3163 3164 3164 3164 3165 3165 3165 3166 3168 3168 3168 3168 3167 3167 3166 3167 3167 3167 3166
3090 3091 3091 3092 3093 3093 3094 3094 3095 3096 3097 3099 3099 3100 3102 3103 3104 3105 3106 3107 3108 3109 3110 3111 3112 3113 3115 3116 3118 3119 3120 3121 3121 3122 3124 3126 3127 3129 3132 3133 3134 3136 3137 3138 3139 3139 3140 3141 3142 3143 3144 3146 3148 3149 3150 3151 3151 3152 3153 3155 3156 3157 3157 3158 3158 3159 3159 3160 3160 3161 3161 3161 3162 3163 3164 3165 3165 3165 3164 3164 3163 3163 3164 3163 3163
3086 3087 3088 3089 3089 3090 3090 3091 3091 3092 3093 3095 3095 3096 3097 3099 3100 3101 3102 3102 3104 3104 3105 3106 3107 3108 3110 3111 3112 3113 3115 3116 3117 3118 3120 3122 3123 3125 3127 3128 3129 3130 3131 3133 3134 3134 3135 3136 3137 3139 3140 3142 3143 3145 3146 3146 3146 3147 3149 3150 3151 3152 3153 3153 3153 3154 3155 3155 3156 3157 3157 3157 3158 3159 3160 3162 3163 3162 3161 3160 3160 3160 3160 3160 3159
3082 3083 3084 3085 3086 3087 3087 3087 3088 3089 3089 3091 3092 3092 3093 3095 3096 3097 3098 3098 3099 3100 3101 3101 3102 3104 3105 3106 3107 3108 3109 3111 3112 3114 3115 3117 3118 3119 3121 3122 3124 3125 3126 3127 3128 3129 3130 3131 3133 3135 3136 3137 3138 3140 3141 3142 3142 3143 3144 3144 3145 3147 3148 3148 3148 3149 3149 3150 3152 3152 3152 3153 3154 3156 3157 3158 3159 3158 3158 3157 3157 3157 3156 3156 3156
3079 3079 3080 3081 3082 3083 3083 3084 3084 3085 3086 3086 3087 3088 3089 3091 3092 3093 3094 3094 3095 3096 3096 3097 3098 3099 3100 3101 3102 3103 3105 3106 3107 3109 3110 3112 3113 3114 3115 3116 3118 3118 3119 3121 3122 3124 3125 3127 3128 3130 3131 3132 3133 3135 3136 3137 3138 3138 3139 3138 3139 3141 3142 3143 3143 3144 3144 3145 3147 3147 3148 3149 3150 3152 3153 3154 3154 3154 3154 3154 3154 3153 3153 3152 3152
3075 3075 3075 3076 3077 3078 3079 3080 3080 3081 3082 3082 3083 3084 3085 3086 3087 3088 3089 3090 3090 3091 3092 3093 3094 3094 3095 3096 3097 3099 3100 3102 3103 3104 3105 3106 3107 3108 3109 3110 3111 3112 3113 3114 3116 3118 3119 3120 3122 3123 3125 3126 3128 3129 3130 3132 3133 3134 3134 3134 3134 3134 3136 3137 3138 3139 3139 3140 3141 3142 3144 3145 3146 3147 3149 3150 3150 3150 3149 3149 3150 3150 3149 3148 3148
3071 3071 3071 3071 3071 3072 3074 3075 3076 3077 3077 3078 3079 3080 3080 3081 3082 3083 3084 3085 3086 3086 3087 3088 3089 3090 3090 3091 3092 3094 3095 3097 3098 3099 3100 3101 3102 3102 3103 3103 3104 3105 3106 3107 3109 3110 3112 3113 3114 3116 3118 3120 3122 3123 3124 3125 3127 3128 3129 3129 3128 3129 3130 3131 3132 3133 3134 3135 3135 3137 3140 3141 3141 3143 3144 3145 3145 3145 3144 3145 3146 3146 3145 3144 3145
3067 3067 3067 3066 3066 3067 3068 3069 3070 3072 3072 3073 3074 3075 3076 3077 3078 3079 3080 3081 3081 3082 3083 3083 3084 3085 3086 3086 3087 3088 3090 3092 3094 3094 3095 3096 3096 3096 3096 3097 3097 3097 3099 3100 3102 3103 3104 3106 3106 3108 3111 3113 3115 3116 3118 3118 3120 3121 3122 3122 3123 3124 3125 3126 3128 3128 3128 3129 3129 3131 3135 3136 3136 3138 3139 3139 3139 3140 3140 3141 3141 3141 3140 3140 3140
3064 3064 3064 3063 3063 3062 3063 3063 3064 3066 3067 3068 3069 3069 3070 3072 3073 3073 3074 3075 3076 3077 3078 3079 3080 3080 3081 3081 3082 3083 3085 3087 3088 3089 3090 3091 3091 3090 3090 3090 3090 3090 3091 3093 3094 3095 3097 3098 3099 3100 3102 3104 3107 3109 3110 3112 3112 3113 3113 3115 3116 3118 3119 3120 3122 3124 3124 3123 3124 3126 3130 3131 3131 3133 3134 3133 3134 3135 3135 3135 3136 3135 3134 3134 3135
3061 3061 3061 3060 3060 3059 3059 3059 3059 3060 3061 3061 3062 3063 3064 3065 3066 3067 3068 3069 3071 3072 3073 3074 3075 3076 3076 3076 3076 3078 3080 3081 3082 3082 3083 3084 3084 3083 3083 3082 3083 3083 3084 3085 3086 3087 3089 3090 3091 3092 3093 3095 3098 3101 3103 3104 3105 3104 3105 3106 3108 3110 3111 3114 3117 3118 3118 3118 3118 3120 3123 3125 3125 3126 3127 3127 3128 3129 3129 3129 3129 3129 3128 3129 3131
3059 3058 3057 3057 3056 3055 3055 3055 3055 3055 3055 3056 3056 3057 3057 3058 3060 3060 3061 3063 3064 3065 3066 3068 3069 3070 3071 3071 3071 3071 3073 3075 3075 3075 3076 3076 3076 3076 3075 3075 3075 3075 3076 3078 3078 3079 3081 3082 3083 3084 3086 3087 3090 3093 3095 3096 3096 3097 3097 3099 3100 3101 3103 3106 3109 3109 3110 3111 3112 3113 3116 3118 3118 3118 3119 3120 3122 3123 3122 3122 3124 3123 3123 3124 3125
3057 3056 3055 3054 3053 3052 3051 3051 3050 3050 3050 3050 3050 3051 3052 3052 3053 3054 3055 3056 3058 3059 3059 3061 3063 3064 3065 3065 3065 3064 3065 3067 3067 3067 3068 3068 3068 3068 3068 3068 3067 3067 3068 3070 3070 3071 3072 3074 3076 3076 3078 3081 3084 3086 3088 3088 3088 3089 3090 3092 3092 3092 3094 3098 3099 3099 3100 3102 3103 3105 3107 3110 3111 3111 3111 3113 3116 3115 3115 3117 3119 3118 3117 3119 3120
3056 3055 3053 3052 3051 3049 3048 3047 3046 3046 3045 3045 3045 3045 3046 3047 3047 3048 3048 3049 3051 3052 3053 3054 3056 3057 3057 3058 3058 3057 3057 3059 3060 3059 3060 3060 3060 3060 3060 3059 3059 3059 3061 3062 3062 3063 3064 3066 3068 3069 3070 3073 3076 3079 3080 3081 3080 3082 3084 3084 3083 3083 3087 3090 3089 3090 3091 3092 3094 3096 3099 3102 3105 3105 3104 3106 3108 3107 3108 3111 3112 3110 3111 3113 3115
3055 3053 3052 3050 3048 3047 3045 3044 3043 3042 3041 3041 3040 3040 3040 3041 3042 3042 3043 3043 3045 3046 3047 3048 3049 3050 3051 3051 3051 3051 3050 3051 3052 3052 3052 3052 3052 3051 3051 3050 3050 3051 3053 3053 3053 3055 3056 3058 3060 3062 3063 3066 3068 3071 3073 3074 3074 3075 3076 3075 3074 3077 3081 3082 3081 3083 3084 3084 3085 3088 3090 3093 3096 3096 3096 3098 3100 3101 3102 3104 3104 3104 3105 3108 3109
3053 3051 3050 3048 3046 3044 3042 3041 3039 3038 3037 3036 3036 3035 3035 3035 3036 3037 3038 3038 3040 3041 3042 3043 3043 3044 3045 3044 3044 3044 3044 3043 3043 3044 3043 3043 3043 3043 3042 3041 3042 3042 3043 3044 3044 3045 3047 3049 3052 3054 3057 3058 3061 3063 3065 3066 3067 3067 3068 3067 3068 3072 3074 3074 3074 3076 3076 3076 3078 3079 3081 3083 3086 3087 3089 3090 3092 3094 3095 3096 3097 3098 3100 3101 3102
3051 3049 3047 3046 3044 3042 3040 3038 3036 3035 3033 3032 3031 3030 3030 3029 3031 3032 3033 3034 3035 3036 3038 3038 3038 3038 3039 3039 3039 3038 3038 3036 3035 3035 3035 3034 3034 3033 3032 3032 3033 3033 3032 3033 3034 3036 3038 3041 3043 3046 3049 3050 3052 3055 3057 3058 3059 3059 3059 3060 3062 3065 3066 3066 3067 3068 3067 3068 3069 3069 3070 3073 3075 3078 3081 3082 3084 3086 3088 3089 3090 3091 3092 3094 3095
3048 3047 3045 3044 3042 3039 3037 3035 3033 3031 3030 3028 3027 3026 3025 3025 3026 3028 3029 3030 3031 3032 3033 3033 3033 3033 3033 3034 3034 3033 3031 3029 3028 3026 3025 3024 3023 3022 3021 3021 3022 3022 3021 3022 3024 3026 3029 3032 3034 3037 3040 3042 3043 3046 3048 3050 3050 3050 3051 3053 3055 3056 3057 3057 3058 3059 3059 3059 3059 3058 3059 3063 3066 3069 3071 3074 3076 3080 3082 3083 3083 3083 3084 3087 3088
3047 3045 3044 3042 3040 3038 3035 3033 3030 3028 3027 3025 3024 3023 3022 3022 3023 3024 3025 3026 3027 3028 3029 3029 3029 3028 3028 3029 3028 3027 3024 3021 3019 3017 3015 3013 3011 3011 3011 3011 3012 3011 3011 3011 3013 3015 3018 3021 3024 3027 3030 3032 3034 3037 3039 3040 3041 3041 3042 3045 3047 3048 3049 3048 3049 3050 3051 3051 3049 3049 3050 3054 3057 3059 3062 3066 3070 3073 3075 3076 3075 3075 3077 3080 3080
3045 3044 3042 3040 3038 3036 3034 3031 3028 3026 3024 3023 3022 3021 3020 3020 3020 3021 3022 3023 3024 3025 3025 3025 3025 3024 3023 3022 3021 3020 3017 3014 3010 3007 3004 3002 3001 3001 3001 3001 3002 3001 3001 3001 3002 3003 3006 3010 3013 3016 3018 3021 3024 3026 3028 3030 3032 3033 3034 3036 3038 3039 3039 3039 3040 3042 3042 3042 3042 3042 3043 3047 3050 3053 3057 3061 3064 3065 3066 3067 3067 3068 3070 3072 3073
3043 3041 3039 3038 3036 3034 3032 3030 3027 3024 3022 3021 3020 3019 3019 3019 3019 3018 3019 3020 3020 3021 3021 3021 3020 3019 3017 3016 3014 3013 3011 3007 3003 3000 2996 2993 2992 2992 2992 2992 2992 2991 2991 2991 2991 2993 2995 2998 3001 3004 3006 3009 3012 3014 3016 3019 3022 3024 3025 3027 3028 3029 3030 3031 3033 3034 3034 3036 3037 3037 3038 3042 3046 3048 3051 3053 3055 3056 3057 3058 3059 3060 3062 3063 3065
3041 3039 3037 3036 3034 3032 3030 3028 3025 3023 3021 3019 3018 3017 3017 3017 3017 3016 3016 3017 3017 3017 3017 3016 3015 3013 3012 3011 3009 3006 3003 3000 2997 2993 2990 2987 2985 2984 2984 2983 2983 2983 2983 2983 2983 2984 2986 2988 2990 2992 2995 2997 3000 3002 3004 3007 3009 3012 3015 3016 3018 3020 3021 3023 3025 3027 3027 3029 3031 3032 3034 3037 3039 3040 3042 3044 3045 3047 3049 3049 3050 3051 3053 3056 3057
3039 3038 3036 3034 3032 3030 3028 3026 3024 3021 3019 3017 3016 3015 3015 3015 3014 3014 3013 3013 3013 3013 3012 3011 3010 3008 3006 3005 3002 2999 2996 2993 2990 2986 2983 2980 2977 2977 2977 2977 2977 2977 2976 2976 2977 2978 2979 2979 2980 2982 2984 2985 2988 2990 2992 2994 2996 2999 3003 3006 3008 3010 3012 3014 3016 3018 3019 3021 3023 3025 3027 3029 3031 3032 3034 3035 3036 3038 3040 3040 3040 3042 3045 3047 3047
3038 3037 3035 3033 3031 3029 3027 3025 3023 3021 3018 3016 3015 3013 3013 3012 3012 3011 3010 3009 3009 3008 3008 3007 3005 3002 3001 2999 2995 2990 2987 2986 2983 2980 2976 2973 2971 2970 2971 2971 2971 2971 2970 2970 2970 2971 2971 2971 2972 2973 2974 2975 2977 2979 2982 2984 2985 2988 2991 2994 2997 3000 3003 3005 3006 3009 3012 3014 3016 3017 3020 3021 3023 3025 3026 3026 3027 3029 3031 3031 3031 3033 3035 3037 3037
3037 3036 3034 3032 3030 3028 3026 3024 3022 3020 3018 3016 3014 3012 3011 3009 3008 3008 3007 3005 3004 3003 3002 3001 3000 2997 2995 2994 2990 2984 2980 2978 2977 2974 2970 2967 2965 2964 2964 2965 2966 2965 2965 2964 2963 2963 2963 2963 2963 2964 2966 2967 2968 2969 2972 2974 2975 2977 2980 2983 2986 2989 2992 2995 2997 3000 3004 3006 3008 3010 3012 3013 3015 3017 3018 3018 3019 3021 3022 3022 3022 3023 3025 3027 3028
3036 3034 3033 3031 3029 3027 3025 3023 3021 3019 3016 3014 3012 3011 3010 3008 3006 3004 3003 3002 3000 2999 2997 2996 2995 2992 2990 2988 2986 2982 2977 2974 2972 2969 2966 2962 2960 2958 2958 2958 2959 2959 2959 2958 2957 2956 2955 2956 2956 2958 2959 2959 2960 2961 2963 2964 2966 2968 2970 2972 2975 2978 2981 2985 2988 2991 2994 2997 3000 3002 3003 3005 3007 3009 3010 3010 3011 3013 3014 3013 3013 3014 3016 3019 3021
3034 3033 3031 3030 3028 3026 3024 3022 3020 3018 3016 3013 3011 3009 3007 3006 3005 3002 3000 2998 2997 2995 2994 2993 2991 2990 2987 2984 2981 2979 2976 2972 2969 2966 2963 2960 2957 2954 2953 2953 2953 2953 2953 2952 2950 2950 2950 2950 2951 2952 2952 2953 2954 2955 2955 2956 2957 2958 2960 2961 2964 2967 2970 2975 2979 2982 2985 2988 2992 2993 2995 2997 2999 3001 3002 3003 3004 3005 3006 3005 3005 3007 3010 3013 3014
3033 3031 3030 3028 3026 3024 3022 3020 3018 3016 3014 3012 3010 3007 3005 3003 3002 3000 2999 2997 2994 2992 2990 2989 2987 2986 2984 2981 2978 2976 2973 2970 2967 2963 2960 2957 2954 2951 2949 2948 2948 2948 2948 2947 2946 2946 2947 2946 2946 2946 2945 2946 2946 2947 2948 2949 2949 2950 2950 2951 2953 2956 2960 2965 2970 2972 2975 2979 2983 2984 2986 2989 2991 2993 2995 2996 2997 2997 2998 2998 2998 3000 3004 3006 3008
3031 3029 3028 3026 3024 3023 3021 3019 3017 3015 3012 3010 3008 3006 3003 3001 2999 2997 2995 2994 2992 2990 2988 2986 2984 2982 2980 2978 2975 2972 2970 2967 2964 2961 2958 2954 2951 2948 2946 2945 2945 2945 2944 2943 2943 2942 2942 2942 2941 2940 2939 2938 2939 2939 2939 2940 2941 2942 2942 2943 2944 2946 2949 2953 2958 2961 2965 2970 2973 2975 2978 2981 2984 2985 2986 2987 2988 2989 2990 2991 2992 2994 2997 2999 3002
3029 3028 3026 3024 3022 3021 3019 3017 3015 3012 3010 3008 3006 3004 3002 2999 2997 2994 2992 2990 2988 2986 2985 2983 2981 2978 2976 2974 2971 2968 2965 2963 2961 2958 2955 2951 2948 2945 2942 2940 2940 2940 2939 2938 2938 2937 2937 2936 2936 2935 2934 2933 2932 2931 2931 2931 2933 2934 2935 2936 2937 2938 2940 2943 2947 2951 2956 2961 2964 2967 2970 2973 2974 2975 2977 2979 2981 2982 2983 2984 2986 2988 2991 2994 2997
3027 3026 3024 3022 3021 3019 3017 3015 3013 3010 3008 3006 3004 3002 3000 2997 2995 2993 2990 2988 2985 2983 2981 2979 2977 2975 2973 2971 2968 2965 2962 2959 2957 2954 2951 2948 2944 2941 2937 2935 2934 2934 2934 2933 2933 2932 2932 2931 2930 2929 2927 2926 2925 2924 2924 2924 2925 2926 2928 2929 2930 2931 2933 2936 2939 2942 2947 2952 2956 2960 2962 2963 2964 2967 2970 2972 2973 2974 2976 2978 2980 2981 2984 2988 2990
3025 3024 3022 3020 3019 3017 3015 3013 3011 3008 3006 3004 3002 3000 2998 2996 2993 2991 2989 2986 2984 2981 2978 2975 2973 2972 2970 2968 2966 2963 2960 2957 2953 2950 2948 2946 2943 2938 2934 2932 2931 2930 2930 2930 2929 2928 2927 2926 2925 2922 2920 2919 2918 2917 2917 2917 2918 2919 2920 2921 2923 2925 2927 2930 2932 2935 2939 2944 2948 2952 2955 2956 2958 2960 2962 2964 2965 2968 2970 2973 2974 2975 2978 2980 2982
3023 3022 3020 3018 3017 3015 3013 3011 3009 3007 3005 3002 3000 2998 2996 2994 2992 2989 2987 2984 2982 2979 2976 2973 2970 2968 2966 2964 2962 2960 2958 2955 2952 2949 2946 2944 2941 2937 2934 2931 2929 2927 2926 2925 2924 2923 2922 2921 2919 2917 2915 2914 2913 2912 2911 2911 2911 2912 2913 2914 2916 2918 2920 2923 2926 2928 2932 2936 2942 2946 2949 2951 2953 2954 2955 2958 2961 2963 2964 2965 2967 2969 2971 2973 2973
3021 3020 3018 3016 3015 3013 3011 3009 3007 3005 3003 3001 2999 2996 2994 2992 2990 2987 2985 2983 2980 2977 2975 2972 2969 2966 2963 2960 2958 2956 2954 2952 2949 2946 2943 2940 2938 2936 2934 2932 2929 2925 2923 2922 2920 2919 2917 2916 2914 2913 2911 2909 2908 2907 2906 2905 2905 2905 2907 2909 2910 2912 2913 2916 2918 2920 2923 2928 2934 2938 2941 2945 2947 2949 2950 2951 2954 2957 2958 2959 2961 2963 2964 2965 2967
3019 3017 3016 3014 3013 3011 3009 3007 3005 3003 3001 2999 2997 2995 2992 2990 2988 2986 2983 2981 2978 2975 2972 2970 2967 2964 2961 2958 2955 2952 2950 2948 2945 2943 2940 2937 2935 2934 2932 2930 2928 2925 2922 2920 2918 2916 2914 2912 2910 2908 2906 2904 2902 2901 2900 2900 2900 2901 2903 2904 2905 2907 2909 2910 2912 2914 2916 2920 2925 2929 2933 2937 2940 2942 2943 2945 2947 2950 2953 2954 2955 2956 2956 2958 2959
3016 3015 3013 3012 3011 3009 3007 3005 3003 3001 2999 2997 2995 2993 2991 2988 2986 2984 2981 2979 2976 2974 2971 2968 2966 2963 2960 2957 2954 2951 2948 2945 2943 2940 2938 2935 2933 2931 2929 2927 2926 2924 2922 2920 2918 2916 2913 2910 2907 2904 2901 2899 2897 2897 2896 2897 2897 2898 2899 2901 2902 2903 2905 2907 2908 2910 2912 2915 2919 2923 2926 2929 2932 2934 2936 2939 2942 2944 2946 2947 2949 2949 2949 2950 2952
3014 3013 3011 3010 3008 3007 3005 3003 3001 2999 2997 2995 2993 2991 2989 2987 2985 2982 2980 2978 2975 2973 2970 2967 2965 2962 2959 2957 2954 2951 2948 2945 2943 2940 2937 2934 2932 2930 2928 2926 2924 2923 2921 2920 2918 2916 2912 2909 2907 2903 2899 2896 2894 2894 2894 2894 2895 2895 2896 2897 2898 2900 2902 2903 2904 2906 2909 2912 2914 2917 2919 2922 2924 2927 2930 2933 2935 2937 2939 2941 2942 2944 2944 2945 2946
3012 3011 3009 3008 3006 3004 3003 3001 2999 2997 2996 2994 2991 2989 2987 2985 2983 2981 2979 2976 2974 2971 2969 2967 2964 2961 2959 2956 2954 2951 2948 2946 2943 2940 2937 2934 2932 2930 2928 2926 2924 2922 2920 2918 2917 2915 2912 2909 2906 2903 2900 2896 2893 2891 2890 2891 2892 2892 2893 2894 2895 2897 2898 2899 2900 2903 2907 2909 2912 2914 2916 2917 2919 2922 2924 2927 2929 2931 2933 2934 2936 2938 2940 2941 2942
3011 3009 3008 3006 3004 3003 3001 2999 2997 2996 2994 2992 2990 2987 2985 2983 2981 2979 2977 2975 2973 2970 2968 2966 2963 2961 2958 2956 2953 2950 2948 2945 2943 2940 2937 2935 2932 2930 2927 2925 2923 2921 2919 2917 2916 2914 2911 2909 2906 2904 2901 2899 2897 2894 2891 2890 2890 2889 2890 2892 2894 2895 2896 2896 2897 2900 2904 2907 2909 2911 2912 2914 2915 2917 2919 2921 2923 2925 2927 2929 2929 2931 2934 2936 2937
3010 3008 3006 3005 3003 3001 2999 2997 2995 2994 2992 2990 2988 2986 2983 2981 2979 2977 2975 2973 2971 2969 2967 2964 2962 2960 2957 2955 2952 2950 2947 2945 2942 2940 2938 2935 2932 2930 2927 2925 2923 2921 2919 2917 2916 2913 2911 2909 2907 2905 2903 2901 2900 2898 2896 2894 2891 2890 2889 2890 2892 2893 2894 2895 2896 2898 2901 2903 2905 2907 2909 2910 2912 2914 2917 2917 2917 2918 2922 2924 2924 2925 2928 2930 2932
3009 3007 3005 3004 3002 3000 2998 2996 2994 2992 2990 2988 2986 2984 2982 2979 2977 2975 2973 2971 2969 2967 2965 2963 2961 2958 2956 2954 2951 2949 2946 2944 2942 2939 2937 2935 2932 2930 2927 2925 2923 2921 2919 2917 2915 2913 2911 2909 2907 2906 2904 2903 2901 2900 2898 2897 2895 2893 2892 2891 2891 2891 2892 2892 2892 2894 2897 2899 2900 2902 2905 2907 2909 2911 2914 2914 2913 2914 2917 2920 2920 2921 2923 2925 2927
3008 3006 3004 3002 3001 2999 2997 2995 2993 2991 2988 2986 2984 2982 2980 2978 2975 2973 2971 2969 2967 2965 2963 2961 2959 2957 2955 2952 2950 2948 2945 2943 2941 2939 2936 2934 2932 2929 2927 2925 2923 2920 2918 2916 2914 2913 2911 2910 2908 2906 2905 2903 2902 2900 2899 2898 2896 2895 2895 2893 2892 2892 2892 2891 2890 2891 2893 2895 2896 2897 2899 2902 2904 2907 2909 2909 2910 2911 2913 2915 2917 2918 2920 2921 2924
3005 3004 3002 3001 2999 2997 2995 2993 2991 2989 2987 2985 2982 2980 2978 2976 2974 2971 2969 2967 2965 2963 2960 2958 2957 2955 2953 2951 2949 2946 2944 2942 2940 2938 2935 2933 2931 2929 2927 2925 2923 2921 2919 2917 2915 2913 2911 2910 2908 2906 2905 2903 2901 2900 2899 2898 2897 2896 2895 2894 2894 2893 2893 2892 2891 2891 2892 2893 2894 2894 2896 2899 2900 2902 2903 2905 2906 2908 2910 2912 2913 2914 2915 2917 2919
3003 3002 3000 2999 2997 2995 2993 2991 2989 2987 2985 2983 2981 2979 2976 2974 2972 2969 2967 2965 2963 2960 2958 2956 2954 2952 2950 2948 2946 2944 2942 2940 2938 2936 2934 2932 2930 2928 2927 2925 2923 2921 2919 2917 2916 2914 2912 2910 2908 2907 2905 2903 2902 2900 2898 2897 2896 2895 2895 2894 2894 2893 2893 2893 2892 2892 2893 2893 2894 2894 2895 2896 2898 2899 2900 2902 2904 2905 2906 2908 2909 2910 2911 2913 2914
3000 2999 2997 2996 2994 2992 2990 2988 2986 2984 2983 2981 2979 2976 2974 2972 2970 2967 2965 2963 2961 2958 2956 2954 2952 2950 2948 2946 2944 2942 2940 2938 2936 2934 2933 2931 2929 2927 2926 2924 2922 2921 2919 2917 2916 2914 2912 2911 2909 2907 2906 2904 2902 2900 2899 2897 2896 2895 2895 2894 2894 2893 2893 2893 2893 2893 2893 2894 2893 2893 2894 2895 2895 2897 2898 2900 2901 2902 2903 2904 2906 2907 2908 2909 2910
2997 2995 2994 2992 2990 2989 2987 2985 2983 2981 2979 2977 2976 2974 2972 2969 2967 2965 2963 2961 2958 2956 2954 2952 2949 2947 2945 2943 2941 2939 2938 2936 2934 2932 2931 2929 2927 2925 2924 2922 2921 2919 2918 2916 2915 2913 2912 2911 2909 2908 2906 2905 2903 2901 2900 2898 2897 2896 2895 2894 2893 2893 2892 2892 2892 2892 2892 2892 2892 2892 2892 2893 2894 2895 2896 2897 2898 2899 2900 2901 2902 2903 2904 2905 2906